Location: Cedar Brake
(32.2526°N, 97.8459°W)
Time: 20:52:20
(UTC+00:00)

Cosmos 1553 Rocket - Pass Details

Date: 22 April 2026
Orbit: 942 x 1006 km, 82.9° (Epoch: 21 May)

Event Time Altitude Azimuth Distance (km) Brightness Sun altitude
Exits shadow 09:38:04 31° 161° (SSE) 1,628 5.0 -26.7°
Maximum altitude 09:41:03 62° 92° (E) 1,081 4.3 -26.2°
Drops below altitude 10° 09:47:11 10° 14° (NNE) 2,731 6.9 -25.2°
Sets 09:49:45 0° 11° (N) 3,692 7.7 -24.7°
